Regional Weather Roundup
Issued by NWS

Home | Current Version | Previous Version | Text Only | Print | Product List | Glossary Off
Versions: 1 2 3 4 5 6 7 8 9 10 11 12 13 14 15 16 17 18 19 20 21 22 23 24 25 26 27 28 29 30 31 32 33 34 35 36 37 38 39 40 41 42 43 44 45 46 47 48 49 50

000
ASUS43 KBIS 200320
RWRND

NORTH DAKOTA REGIONAL WEATHER ROUNDUP
NATIONAL WEATHER SERVICE BISMARCK ND
1000 PM CDT FRI SEP 19 2014

NOTE: "FAIR" INDICATES FEW OR NO CLOUDS BELOW 12,000 FEET WITH NO
SIGNIFICANT WEATHER AND/OR OBSTRUCTIONS TO VISIBILITY.


NDZ001>003-009>011-017-200400-
NORTHWEST NORTH DAKOTA

CITY           SKY/WX    TMP DP  RH WIND       PRES   REMARKS
WILLISTON      PTCLDY    57  49  74 N3        29.80R
MINOT          CLEAR     63  53  70 W12       29.76R
MINOT AFB      CLEAR     77  55  47 NW25      29.58S
$$

NDZ018>021-031>035-040>046-200400-
SOUTHWEST NORTH DAKOTA

CITY           SKY/WX    TMP DP  RH WIND       PRES   REMARKS
BISMARCK       MOCLDY    68  54  60 NW10      29.79R
DICKINSON      CLEAR     57  50  77 W7        29.84R
GARRISON         N/A     57  52  83 NW8       29.79R
HETTINGER ARPT PTCLDY    55  48  77 W5        29.88R
$$

NDZ004>008-012>016-024-026-027-054-200400-
NORTHEAST NORTH DAKOTA

CITY           SKY/WX    TMP DP  RH WIND       PRES   REMARKS
GRAND FORKS    MOCLDY    63  56  78 N14       29.63R
GRND FRKS AFB  MOCLDY    62  58  84 N14       29.65R
DEVILS LAKE    MOCLDY    63  54  72 N9        29.70R
$$

NDZ022-023-025-028>030-036>039-047>053-200400-
SOUTHEAST NORTH DAKOTA

CITY           SKY/WX    TMP DP  RH WIND       PRES   REMARKS
FARGO          MOCLDY    71  55  56 W14       29.60R
JAMESTOWN      CLOUDY    67  56  67 NW14      29.71R
$$



USA.gov is the U.S. government's official web portal to all federal, state and local government web resources and services.